KF7ROW Weather Reports


Display with metric or nautical units.
time (UTC)temp
F
wind
direction
speed
MPH
gust
MPH
rain 1hr
in
rain 24hr
in
rain mn
in
humidity
%
barometer
mb
20260505111845 54 218 0.0 1.0 0.00 0.00 0.00 95 1019.2
20260505111340 54 212 0.0 1.0 0.00 0.00 0.00 95 1019.2
20260505110837 53 241 1.0 2.0 0.00 0.00 0.00 95 1019.3
20260505110334 54 219 3.0 3.0 0.00 0.00 0.00 96 1019.1
20260505101809 54 212 0.0 0.0 0.00 0.00 0.00 96 1019.1
20260505101305 54 214 0.0 0.0 0.00 0.00 0.00 96 1019.1
20260505100801 54 215 0.0 0.0 0.00 0.00 0.00 96 1019.2
20260505100258 54 220 0.0 0.0 0.00 0.00 0.00 96 1019.2
20260505095753 54 254 2.0 2.0 0.00 0.00 0.00 96 1019.1
20260505095251 54 247 2.0 2.0 0.00 0.00 0.00 96 1019.0
20260505094746 54 208 0.0 0.0 0.00 0.00 0.00 96 1019.2
20260505094244 54 210 0.0 0.0 0.00 0.00 0.00 96 1019.1
20260505093739 54 207 0.0 0.0 0.00 0.00 0.00 96 1019.0
20260505093237 54 207 0.0 0.0 0.00 0.00 0.00 96 1019.0
20260505092734 54 208 0.0 0.0 0.00 0.00 0.00 96 1018.9
20260505092233 54 208 0.0 0.0 0.00 0.00 0.00 96 1018.9
20260505091729 54 208 0.0 0.0 0.00 0.00 0.00 95 1019.0
20260505091228 54 205 0.0 0.0 0.00 0.00 0.00 95 1019.0
20260505090725 54 201 0.0 0.0 0.00 0.00 0.00 95 1018.8
20260505090223 54 199 0.0 1.0 0.00 0.00 0.00 95 1018.9
20260505085720 54 221 0.0 0.0 0.00 0.00 0.00 95 1018.9
20260505085218 54 236 1.0 1.0 0.00 0.00 0.00 95 1018.9
20260505084715 54 214 0.0 2.0 0.00 0.00 0.00 95 1018.9
20260505084214 54 224 0.0 1.0 0.00 0.00 0.00 95 1018.9
20260505083710 54 220 1.0 2.0 0.00 0.00 0.00 95 1018.8
20260505083208 54 213 2.0 2.0 0.00 0.00 0.00 95 1018.8
20260505082703 54 239 1.0 2.0 0.00 0.00 0.00 95 1018.8
20260505082201 54 261 1.0 2.0 0.00 0.00 0.00 95 1018.7
20260505081656 54 237 2.0 2.0 0.00 0.00 0.00 94 1018.8
20260505081154 54 230 1.0 2.0 0.00 0.00 0.00 94 1018.9
20260505080651 54 229 1.0 2.0 0.00 0.00 0.00 94 1018.9
20260505080147 54 237 1.0 3.0 0.00 0.00 0.00 94 1018.8
20260505075643 54 231 2.0 2.0 0.00 0.00 0.00 94 1018.9
20260505075140 54 218 1.0 3.0 0.00 0.00 0.00 94 1018.8
20260505074637 54 210 0.0 1.0 0.00 0.00 0.00 94 1018.7
20260505074134 54 227 1.0 2.0 0.00 0.00 0.00 94 1018.9
20260505073631 54 218 0.0 0.0 0.00 0.00 0.00 94 1018.9
20260505073129 54 205 0.0 0.0 0.00 0.00 0.00 93 1018.9
20260505072624 54 218 1.0 2.0 0.00 0.00 0.00 93 1018.9
20260505072122 54 231 1.0 3.0 0.00 0.00 0.00 93 1018.7
20260505071617 54 221 0.0 3.0 0.00 0.00 0.00 93 1018.8
20260505071115 54 218 0.0 3.0 0.00 0.00 0.00 93 1018.8
20260505070612 54 199 0.0 1.0 0.00 0.00 0.00 92 1019.1
20260505070108 54 257 2.0 3.0 0.00 0.00 0.00 92 1019.0
20260505065604 54 223 2.0 2.0 0.00 0.00 0.00 92 1018.9
20260505065101 55 221 1.0 2.0 0.00 0.00 0.00 92 1019.0
20260505064558 54 202 2.0 2.0 0.00 0.00 0.00 91 1018.9
20260505064057 54 154 2.0 3.0 0.00 0.00 0.00 92 1019.1
20260505063553 54 205 0.0 3.0 0.00 0.00 0.00 92 1018.9
20260505063049 54 217 0.0 2.0 0.00 0.00 0.00 92 1019.0
20260505062546 54 221 1.0 2.0 0.00 0.00 0.00 92 1019.0
20260505062043 54 201 0.0 2.0 0.00 0.00 0.00 92 1018.9
20260505061540 54 224 3.0 5.0 0.00 0.00 0.00 91 1019.0
20260505061038 54 217 1.0 5.0 0.00 0.00 0.00 91 1019.0
20260505060536 54 259 2.0 3.0 0.00 0.00 0.00 91 1019.2
20260505060032 54 217 0.0 2.0 0.00 0.00 0.00 91 1019.1
20260505055527 55 220 0.0 1.0 0.00 0.00 0.00 91 1018.9
20260505055024 55 246 2.0 2.0 0.00 0.00 0.00 90 1018.8
20260505054522 55 226 0.0 2.0 0.00 0.00 0.00 90 1018.9
20260505054020 55 223 3.0 5.0 0.00 0.00 0.00 90 1019.0
20260505053517 55 206 3.0 5.0 0.00 0.00 0.00 90 1019.0
20260505053013 55 222 1.0 3.0 0.00 0.00 0.00 90 1019.0
20260505052510 55 238 2.0 6.0 0.00 0.00 0.00 90 1019.1
20260505052008 55 254 6.0 9.0 0.00 0.00 0.00 90 1019.1
20260505051504 55 234 1.0 5.0 0.00 0.00 0.00 89 1019.0
20260505051003 55 251 4.0 7.0 0.00 0.00 0.00 89 1019.1
20260505050500 55 250 5.0 7.0 0.00 0.00 0.00 89 1018.9
20260505041428 55 250 5.0 13.0 0.00 0.00 0.00 89 1018.7
20260505040925 55 220 5.0 5.0 0.00 0.00 0.00 88 1018.6
20260505040423 55 253 3.0 6.0 0.00 0.00 0.00 88 1018.5
20260505035919 55 250 3.0 3.0 0.00 0.00 0.00 88 1018.5
20260505035415 55 164 4.0 8.0 0.00 0.00 0.00 88 1018.4
20260505034913 55 256 9.0 10.0 0.00 0.00 0.00 89 1018.5
20260505034409 55 290 7.0 9.0 0.00 0.00 0.00 89 1018.4
20260505033906 55 211 2.0 3.0 0.00 0.00 0.00 88 1018.4
20260505033403 55 186 0.0 3.0 0.00 0.00 0.00 88 1018.3
20260505032901 55 212 2.0 3.0 0.00 0.00 0.00 88 1018.1
20260505032357 55 224 5.0 8.0 0.00 0.00 0.00 88 1018.1
20260505031854 55 223 2.0 11.0 0.00 0.00 0.00 88 1018.1
20260505031351 55 264 10.0 11.0 0.00 0.00 0.00 88 1017.9
20260505030849 55 278 5.0 6.0 0.00 0.00 0.00 88 1017.9
20260505030344 55 258 8.0 11.0 0.00 0.00 0.00 88 1017.9
20260505025840 56 262 4.0 8.0 0.00 0.00 0.00 87 1017.9
20260505025338 56 236 3.0 7.0 0.00 0.00 0.00 88 1018.1
20260505024836 56 249 6.0 8.0 0.00 0.00 0.00 88 1018.0
20260505024333 56 269 8.0 10.0 0.00 0.00 0.00 89 1018.1
20260505023830 56 259 8.0 10.0 0.00 0.00 0.00 89 1018.1
20260505023327 56 235 6.0 8.0 0.00 0.00 0.00 88 1017.9
20260505022824 56 268 10.0 11.0 0.00 0.00 0.00 88 1017.9
20260505022321 56 273 11.0 13.0 0.00 0.00 0.00 89 1017.8
20260505021819 56 242 9.0 13.0 0.00 0.00 0.00 88 1017.7
20260505021315 56 252 7.0 13.0 0.00 0.00 0.00 88 1018.0
20260505020811 56 282 8.0 10.0 0.00 0.00 0.00 88 1017.8
20260505020307 56 235 4.0 10.0 0.00 0.00 0.00 86 1017.7
20260505015804 56 270 10.0 13.0 0.00 0.00 0.00 87 1017.8
20260505015301 57 257 10.0 11.0 0.00 0.00 0.00 87 1018.0
20260505014758 57 298 7.0 11.0 0.00 0.00 0.00 86 1017.9
20260505014255 57 263 9.0 11.0 0.00 0.00 0.00 86 1017.8
20260505013751 57 229 9.0 13.0 0.00 0.00 0.00 86 1017.8
20260505013249 57 244 10.0 13.0 0.00 0.00 0.00 85 1017.8
20260505012747 57 262 9.0 11.0 0.00 0.00 0.00 84 1017.9
20260505012244 57 280 9.0 13.0 0.00 0.00 0.00 85 1018.1
20260505011739 57 252 10.0 13.0 0.00 0.00 0.00 83 1018.0
20260505011237 57 248 10.0 14.0 0.00 0.00 0.00 84 1017.8
20260505010732 57 266 9.0 14.0 0.00 0.00 0.00 84 1018.3
20260505010229 57 265 11.0 15.0 0.00 0.00 0.00 85 1018.1
20260505005726 57 260 8.0 13.0 0.00 0.00 0.00 86 1018.0
20260505005223 57 266 10.0 14.0 0.00 0.00 0.00 84 1018.1
20260505004720 57 262 9.0 11.0 0.00 0.00 0.00 84 1018.4
20260505004216 58 249 13.0 15.0 0.00 0.00 0.00 84 1018.3
20260505003713 58 261 9.0 11.0 0.00 0.00 0.00 83 1018.5
20260505003211 58 245 13.0 16.0 0.00 0.00 0.00 83 1018.4
20260505002707 58 260 11.0 15.0 0.00 0.00 0.00 83 1018.3
20260505002205 59 266 11.0 16.0 0.00 0.00 0.00 84 1018.5
20260505001702 59 274 12.0 15.0 0.00 0.00 0.00 83 1018.2
20260505001159 59 277 11.0 14.0 0.00 0.00 0.00 84 1018.4
20260505000656 59 249 10.0 15.0 0.00 0.00 0.00 82 1018.2
20260505000154 59 275 10.0 15.0 0.00 0.00 0.00 81 1018.3
20260504235650 59 264 12.0 15.0 0.00 0.00 0.00 81 1018.0
20260504235147 59 302 12.0 15.0 0.00 0.00 0.00 82 1018.2
20260504234644 60 254 7.0 16.0 0.00 0.00 0.00 82 1018.1
20260504234142 60 269 9.0 11.0 0.00 0.00 0.00 82 1018.2
20260504233637 59 240 9.0 14.0 0.00 0.00 0.00 83 1018.2
20260504233133 59 264 8.0 15.0 0.00 0.00 0.00 82 1018.1
20260504232631 59 262 8.0 9.0 0.00 0.00 0.00 82 1018.0
20260504232128 59 222 8.0 15.0 0.00 0.00 0.00 83 1018.2
20260504231624 59 265 11.0 13.0 0.00 0.00 0.00 83 1018.3
20260504231115 59 242 11.0 14.0 0.00 0.00 0.00 82 1018.3
20260504230611 59 248 8.0 13.0 0.00 0.00 0.00 83 1018.2
20260504230110 59 252 8.0 16.0 0.00 0.00 0.00 82 1018.2
20260504225608 59 267 9.0 15.0 0.00 0.00 0.00 83 1018.3
20260504225104 59 254 10.0 14.0 0.00 0.00 0.00 84 1018.3
20260504224601 59 267 10.0 14.0 0.00 0.00 0.00 84 1018.3
20260504224058 59 267 13.0 16.0 0.00 0.00 0.00 84 1018.4
20260504223555 59 265 12.0 15.0 0.00 0.00 0.00 82 1018.5
20260504223050 59 258 9.0 15.0 0.00 0.00 0.00 82 1018.6
20260504222548 59 260 9.0 13.0 0.00 0.00 0.00 83 1018.5
20260504222045 59 281 11.0 13.0 0.00 0.00 0.00 84 1018.7
20260504221542 59 269 13.0 15.0 0.00 0.00 0.00 83 1018.7
20260504221039 59 268 8.0 14.0 0.00 0.00 0.00 84 1018.5
20260504220535 59 249 9.0 13.0 0.00 0.00 0.00 84 1018.7
20260504220032 59 281 10.0 13.0 0.00 0.00 0.00 84 1018.7
20260504215529 59 282 11.0 15.0 0.00 0.00 0.00 84 1018.7
20260504215026 59 274 11.0 13.0 0.00 0.00 0.00 84 1018.6
20260504214522 59 286 9.0 13.0 0.00 0.00 0.00 83 1018.6
20260504214019 59 282 11.0 14.0 0.00 0.00 0.00 84 1018.9
20260504213515 59 278 11.0 14.0 0.00 0.00 0.00 84 1018.9
20260504213013 59 265 11.0 15.0 0.00 0.00 0.00 83 1018.7
20260504212508 59 273 14.0 17.0 0.00 0.00 0.00 84 1018.7
20260504212006 59 263 9.0 16.0 0.00 0.00 0.00 84 1018.8
20260504211503 59 262 12.0 14.0 0.00 0.00 0.00 84 1018.9
20260504211000 59 268 12.0 14.0 0.00 0.00 0.00 84 1018.8
20260504210456 59 253 11.0 14.0 0.00 0.00 0.00 83 1018.9
20260504205953 58 264 11.0 13.0 0.00 0.00 0.00 84 1018.8
20260504205451 58 223 12.0 14.0 0.00 0.00 0.00 85 1018.9
20260504204949 58 262 11.0 13.0 0.00 0.00 0.00 86 1019.0
20260504204447 59 250 10.0 13.0 0.00 0.00 0.00 85 1019.0
20260504203945 58 274 11.0 13.0 0.00 0.00 0.00 84 1019.0
20260504203443 58 284 11.0 11.0 0.00 0.00 0.00 86 1019.0
20260504202939 58 265 11.0 14.0 0.00 0.00 0.00 85 1019.0
20260504202436 58 252 11.0 13.0 0.00 0.00 0.00 85 1019.1
20260504201932 58 269 10.0 11.0 0.00 0.00 0.00 85 1019.0
20260504201430 58 279 10.0 13.0 0.00 0.00 0.00 85 1018.8
20260504200927 58 286 10.0 11.0 0.00 0.00 0.00 85 1018.9
20260504200424 58 261 11.0 14.0 0.00 0.00 0.00 86 1018.9
20260504195921 58 254 8.0 11.0 0.00 0.00 0.00 86 1018.8
20260504195416 59 258 10.0 14.0 0.00 0.00 0.00 85 1018.9
20260504194913 59 244 6.0 11.0 0.00 0.00 0.00 84 1018.7
20260504194409 59 253 7.0 9.0 0.00 0.00 0.00 83 1018.8
20260504193905 59 239 8.0 11.0 0.00 0.00 0.00 85 1018.7
20260504193403 59 251 8.0 9.0 0.00 0.00 0.00 84 1018.7
20260504192901 58 258 7.0 10.0 0.00 0.00 0.00 85 1018.8
20260504192358 58 264 8.0 10.0 0.00 0.00 0.00 84 1018.6
20260504191857 59 257 9.0 11.0 0.00 0.00 0.00 84 1018.7
20260504191354 59 251 7.0 9.0 0.00 0.00 0.00 83 1018.6
20260504190849 58 265 9.0 11.0 0.00 0.00 0.00 83 1018.8
20260504190346 58 281 7.0 11.0 0.00 0.00 0.00 83 1018.6
20260504185843 58 267 8.0 10.0 0.00 0.00 0.00 83 1018.7
20260504185339 58 272 10.0 13.0 0.00 0.00 0.00 84 1018.6
20260504184835 58 270 8.0 10.0 0.00 0.00 0.00 84 1018.7
20260504184332 58 278 10.0 13.0 0.00 0.00 0.00 84 1018.9
20260504183827 58 267 12.0 13.0 0.00 0.00 0.00 86 1018.7
20260504183325 58 283 7.0 9.0 0.00 0.00 0.00 86 1018.8
20260504182822 57 270 8.0 9.0 0.00 0.00 0.00 86 1018.6
20260504182320 58 261 6.0 8.0 0.00 0.00 0.00 86 1018.9
20260504181817 58 246 7.0 10.0 0.00 0.00 0.00 86 1018.9
20260504181314 57 278 8.0 9.0 0.00 0.00 0.00 86 1018.7
20260504180813 57 263 6.0 9.0 0.00 0.00 0.00 86 1018.7
20260504180311 57 274 8.0 9.0 0.00 0.00 0.00 87 1018.7
20260504175809 57 268 7.0 10.0 0.00 0.00 0.00 87 1018.7
20260504175305 57 260 9.0 10.0 0.00 0.00 0.00 87 1018.6
20260504174804 57 267 9.0 10.0 0.00 0.00 0.00 87 1018.5
20260504174301 57 245 7.0 10.0 0.00 0.00 0.00 87 1018.4
20260504173757 57 259 7.0 8.0 0.00 0.00 0.00 86 1018.6
20260504173254 58 261 6.0 9.0 0.00 0.00 0.00 86 1018.5
20260504172751 58 268 6.0 7.0 0.00 0.00 0.00 84 1018.5
20260504172247 58 209 1.0 6.0 0.00 0.00 0.00 83 1018.6
20260504171743 58 248 3.0 5.0 0.00 0.00 0.00 85 1018.6
20260504171241 58 280 2.0 5.0 0.00 0.00 0.00 84 1018.4
20260504170738 58 245 0.0 3.0 0.00 0.00 0.00 85 1018.5
20260504170235 57 263 4.0 5.0 0.00 0.00 0.00 85 1018.4
20260504160153 55 266 5.0 8.0 0.00 0.00 0.00 91 1018.4
20260504151121 55 246 6.0 7.0 0.00 0.00 0.00 91 1018.1
20260504150619 56 286 7.0 9.0 0.00 0.00 0.00 90 1018.1
20260504150115 56 269 4.0 6.0 0.00 0.00 0.00 89 1018.0
20260504141044 55 226 2.0 5.0 0.00 0.00 0.00 91 1017.8
20260504140540 55 243 2.0 3.0 0.00 0.00 0.00 90 1017.6
20260504130505 54 230 2.0 5.0 0.00 0.00 0.00 90 1017.3